Agadir Al Massira, Morocco

4:46 PM WEST on September 28, 2016 (GMT +0100)
Al-Massira

Weather History for GMAD - February, 2013

Change the Weather History Date:

Tuesday, February 19, 2013

  Actual Average Record
Temperature  
Mean Temperature 60 °F -  
Max Temperature 70 °F - - ()
Min Temperature 51 °F - - ()
Degree Days  
Heating Degree Days 4    
Growing Degree Days 10 (Base 50)    
Moisture  
Dew Point 48 °F    
Average Humidity 69    
Maximum Humidity 94    
Minimum Humidity 32    
Precipitation  
Precipitation 0.20 in - - ()
Sea Level Pressure  
Sea Level Pressure 29.86 in    
Wind  
Wind Speed 5 mph ()    
Max Wind Speed 20 mph    
Max Gust Speed -    
Visibility 5.6 miles    
Events Rain , Thunderstorm    
T = Trace of Precipitation, MM = Missing Value Source: Averaged Metar Reports

Daily Weather History Graph

Daily Weather History Graph

Search for Another Location

Airport or City:

Trip Planner

Search our weather history database for the weather conditions in past years. The results will help you decide how hot, cold, wet, or windy it might be!

Date:

Astronomy

Feb. 19, 2013 Rise Set
Actual Time 7:14 AM WET 6:29 PM WET
Civil Twilight 6:49 AM WET 6:53 PM WET
Nautical Twilight 6:21 AM WET 7:21 PM WET
Astronomical Twilight 5:53 AM WET 7:49 PM WET
Moon 1:02 PM WET (2/19) 2:22 AM WET (2/19)
Length of Visible Light 12h 03m
Length of Day
11h 15m
Waxing Gibbous, 65% of the Moon is Illuminated
Feb 19
Waxing Gibbous
Feb 25
Full
Mar 4
Last Quarter
Mar 11
New
Mar 19
First Quarter

Hourly Weather History & Observations

Time (WET) Temp. Dew Point Humidity Pressure Visibility Wind Dir Wind Speed Gust Speed Precip Events Conditions
12:00 AM 58 °F 51 °F 70% 29.86 in 6 mi Calm Calm - -   Overcast
12:00 AM 57.2 °F 50.0 °F 77% 29.86 in 6.2 mi Calm Calm - N/A   Mostly Cloudy
1:00 AM 59.0 °F 51.8 °F 77% 29.83 in 6.2 mi Calm Calm - N/A   Mostly Cloudy
2:00 AM 57.2 °F 50.0 °F 77% 29.83 in 6.2 mi Calm Calm - N/A   Mostly Cloudy
3:00 AM 57 °F 52 °F 79% 29.81 in 6 mi Calm Calm - -   Scattered Clouds
4:15 AM 53.6 °F 51.8 °F 94% 29.83 in 3.1 mi Calm Calm - N/A Rain , Thunderstorm Light Thunderstorms and Rain
5:00 AM 53.6 °F 51.8 °F 94% 29.80 in 3.1 mi East 5.8 mph - N/A Rain , Thunderstorm Light Thunderstorms and Rain
5:30 AM 53.6 °F 50.0 °F 88% 29.80 in 3.1 mi ESE 4.6 mph - N/A Rain Light Rain
6:00 AM 53 °F 51 °F 88% 29.85 in 3 mi WSW 2.3 mph - - Rain Light Rain
6:00 AM 51.8 °F 50.0 °F 94% 29.83 in 3.1 mi Variable 2.3 mph - N/A Rain Light Rain
7:00 AM 51.8 °F 50.0 °F 94% 29.83 in 5.0 mi Calm Calm - N/A   Mostly Cloudy
8:00 AM 51.8 °F 50.0 °F 94% 29.86 in 6.2 mi Calm Calm - N/A   Mostly Cloudy
9:00 AM 54 °F 52 °F 91% 29.88 in 6 mi Calm Calm - -   Partly Cloudy
9:00 AM 53.6 °F 51.8 °F 94% 29.86 in 6.2 mi Calm Calm - N/A   Mostly Cloudy
10:00 AM 55.4 °F 53.6 °F 94% 29.89 in 6.2 mi Calm Calm - N/A   Mostly Cloudy
11:00 AM 59.0 °F 51.8 °F 77% 29.89 in 6.2 mi WSW 3.5 mph - N/A   Mostly Cloudy
12:00 PM 61 °F 46 °F 46% 29.88 in 6 mi WNW 18.4 mph - -   Partly Cloudy
12:00 PM 60.8 °F 44.6 °F 55% 29.86 in 6.2 mi WNW 18.4 mph - N/A   Scattered Clouds
2:00 PM 66.2 °F 44.6 °F 46% 29.83 in 6.2 mi West 18.4 mph - N/A   Scattered Clouds
3:00 PM 66 °F 43 °F 32% 29.83 in 6 mi WNW 19.6 mph - -   Partly Cloudy
3:00 PM 66.2 °F 42.8 °F 43% 29.83 in 6.2 mi WNW 19.6 mph - N/A   Scattered Clouds
4:00 PM 66.2 °F 39.2 °F 37% 29.83 in 6.2 mi WNW 13.8 mph - N/A   Scattered Clouds
5:00 PM 64.4 °F 42.8 °F 45% 29.83 in 6.2 mi West 19.6 mph - N/A   Scattered Clouds
6:00 PM 63 °F 41 °F 33% 29.86 in 6 mi WNW 13.8 mph - -   Partly Cloudy
6:00 PM 62.6 °F 41.0 °F 45% 29.86 in 6.2 mi WNW 13.8 mph - N/A   Scattered Clouds
7:00 PM 60.8 °F 42.8 °F 52% 29.86 in 6.2 mi WNW 18.4 mph - N/A   Scattered Clouds
8:00 PM 59.0 °F 46.4 °F 63% 29.89 in 6.2 mi WNW 15.0 mph - N/A   Scattered Clouds
9:00 PM 57 °F 47 °F 59% 29.94 in 6 mi West 15.0 mph - -   Partly Cloudy
9:00 PM 57.2 °F 46.4 °F 67% 29.92 in 6.2 mi West 15.0 mph - N/A   Scattered Clouds
11:00 PM 55.4 °F 44.6 °F 67% 29.95 in 6.2 mi West 10.4 mph - N/A   Scattered Clouds